Location: Moreno
(33.9175°N, 117.1578°W)
Time: 04:34:17
(UTC+00:00)

CZ-3 R/B - Pass Details

Date: 18 April 2024
Orbit: 492 x 10075 km, 28.3° (Epoch: 28 May)

Event Time Altitude Azimuth Distance (km) Brightness Sun altitude
Exits shadow 12:30:02 10° 247° (WSW) 8,470 5.6 -9.4°
Reaches altitude 10° 12:30:06 10° 247° (WSW) 8,454 5.6 -9.4°
Maximum altitude 12:51:35 57° 176° (S) 2,030 3.1 -5.2°
Drops below altitude 10° 12:57:55 10° 98° (E) 2,747 5.2 -3.9°
Sets 12:59:39 0° 93° (E) 3,360 6.0 -3.6°
